User: anonymous   Login
Location: Unspecified
(0.0000°N, 0.0000°E)
Time: 18:09:57
(UTC+00:00)
Language:

STARLINK-5050 - Orbit

View from above orbital plane
View from above orbital plane
View from above satellite
View from above satellite

Ground track
Ground track

The orbit is defined by the following mean orbital elements,

1 53890U          26145.43078677 +.00000000 +00000-0 +44408-4 0 00002
2 53890  53.2127 304.3990 0001270  90.8010 269.3128 15.08835828    02
Epoch (UTC): 25 May 2026 10:20:19
Eccentricity: 0.0001270
inclination: 53.2127°
perigee height: 539 km
apogee height: 541 km
right ascension of ascending node: 304.3990°
argument of perigee: 90.8010°
revolutions per day: 15.08835828
mean anomaly at epoch: 269.3128°

The dashed part of the orbit path shows where the satellite is in the earth's shadow,  

DLR